Location: Ferchesar
(52.6477°N, 12.4298°E)
Time: 21:54:30
(UTC+01:00)

N. Korean satellite - Visible Passes

Search period start: 12 November 2019 00:00
Search period end: 22 November 2019 00:00
Orbit: 456 x 506 km, 97.2° (Epoch: 12 November)

Date Brightness Start Highest point End Pass type
(mag) Time Alt. Az. Time Alt. Az. Time Alt. Az.
12 Nov 9.2 05:24:47 10° NE 05:27:53 24° E 05:30:56 10° SSE visible
12 Nov 8.4 17:38:51 10° SSW 17:42:13 36° W 17:45:39 10° NNW visible
13 Nov 10.1 05:00:15 10° NE 05:02:16 14° E 05:04:16 10° ESE visible
13 Nov 6.6 06:32:21 10° N 06:36:05 65° WNW 06:39:45 10° SSW visible
13 Nov 7.0 17:13:09 10° S 17:16:45 70° WSW 17:20:27 10° NNW visible
14 Nov 7.1 06:06:59 10° NNE 06:10:43 67° ESE 06:14:24 10° S visible
14 Nov 10.0 18:23:12 10° WSW 18:25:12 14° W 18:27:12 10° NW visible
15 Nov 8.4 05:41:46 10° NNE 05:45:15 35° E 05:48:41 10° SSE visible
15 Nov 9.2 17:56:33 10° SSW 17:59:34 25° W 18:02:39 10° NW visible
16 Nov 9.5 05:16:51 10° NE 05:19:42 20° E 05:22:30 10° SE visible
16 Nov 7.0 06:49:43 10° N 06:53:17 42° WNW 06:56:48 10° SW visible
16 Nov 7.9 17:30:33 10° S 17:34:02 44° W 17:37:37 10° NNW visible
17 Nov 10.2 04:52:42 10° ENE 04:54:03 12° E 04:55:23 10° ESE visible
17 Nov 6.6 06:24:13 10° N 06:27:58 79° WNW 06:31:40 10° SSW visible
17 Nov 6.7 17:04:58 10° SSE 17:08:37 86° WSW 17:12:20 10° NNW visible
18 Nov 7.4 05:58:52 10° NNE 06:02:34 55° E 06:06:11 10° S visible
18 Nov 9.8 18:14:30 10° SW 18:16:57 17° W 18:19:26 10° NW visible
19 Nov 8.8 05:33:44 10° NNE 05:37:03 29° E 05:40:19 10° SSE visible
19 Nov 8.8 17:48:06 10° SSW 17:51:21 29° W 17:54:39 10° NNW visible
20 Nov 9.7 05:08:57 10° NE 05:11:27 17° E 05:13:56 10° SE visible
20 Nov 6.8 06:41:31 10° N 06:45:09 51° WNW 06:48:44 10° SSW visible
20 Nov 7.5 17:22:14 10° S 17:25:51 55° W 17:29:31 10° NNW visible
21 Nov 6.7 06:16:03 10° NNE 06:19:48 85° ESE 06:23:28 10° SSW visible
21 Nov 6.6 16:56:46 10° SSE 17:00:26 79° ENE 17:04:10 10° N visible
21 Nov 10.2 18:33:02 10° WSW 18:34:21 12° W 18:35:41 10° WNW visible
